When you browse on this site, cookies collect data to enhance your experience and personalize the content and advertising you see.
Visit our Privacy Policy to learn more. By continuing to use the site, you agree to this use of cookies and data.
  • In Slovakia
  • List of Countries
  • For 7 days
  • Water Temperature
  • Weather Map
  • Weather Widgets
  • user-avatar
    Login

    Hourly Weather Katschberg

    Today, 26 January, Sunday

    Time Temperature Precipitation Wind Pressure Humidity
    00:00 -2°C° 0 mm 1 mps 626 mmHg 93%
    01:00 -2°C° 0 mm 1 mps 625 mmHg 93%
    02:00 -2°C° 0 mm 1 mps 625 mmHg 93%
    03:00 -2°C° 0 mm 1 mps 625 mmHg 93%
    04:00 -2°C° 0 mm 1 mps 625 mmHg 94%
    05:00 -2°C° 0 mm 1 mps 625 mmHg 93%
    06:00 -2°C° 0 mm 1 mps 625 mmHg 93%
    07:00 -2°C° 0 mm 1 mps 625 mmHg 93%
    08:00 -1°C° 0 mm 1 mps 625 mmHg 92%
    09:00 -1°C° 0 mm 1 mps 626 mmHg 90%
    10:00 0°C° 0 mm 1 mps 626 mmHg 89%
    11:00 +1°C° 0 mm 1 mps 626 mmHg 88%
    12:00 +1°C° 0 mm 1 mps 626 mmHg 87%
    13:00 +1°C° 0 mm 1 mps 625 mmHg 86%
    14:00 0°C° 0 mm 0 mps 625 mmHg 88%
    15:00 0°C° 0 mm 0 mps 625 mmHg 91%
    16:00 -1°C° 0 mm 0 mps 625 mmHg 93%
    17:00 -1°C° 0.1 mm 0 mps 624 mmHg 94%
    18:00 -2°C° 0.1 mm 0 mps 624 mmHg 94%
    19:00 -3°C° 0.1 mm 0 mps 624 mmHg 95%
    20:00 -3°C° 0 mm 0 mps 624 mmHg 94%
    21:00 -2°C° 0 mm 1 mps 624 mmHg 94%
    22:00 -2°C° 0 mm 1 mps 624 mmHg 93%
    23:00 -2°C° 0 mm 1 mps 624 mmHg 93%

    Tomorrow, 27 January, Monday

    Time Temperature Precipitation Wind Pressure Humidity
    00:00 -3°C° 0 mm 1 mps 624 mmHg 92%
    01:00 -3°C° 0 mm 1 mps 624 mmHg 92%
    02:00 -3°C° 0 mm 1 mps 624 mmHg 92%
    03:00 -3°C° 0 mm 1 mps 623 mmHg 91%
    04:00 -4°C° 0 mm 1 mps 623 mmHg 91%
    05:00 -4°C° 0 mm 1 mps 623 mmHg 91%
    06:00 -4°C° 0 mm 1 mps 623 mmHg 91%
    07:00 -4°C° 0 mm 1 mps 623 mmHg 90%
    08:00 -3°C° 0 mm 1 mps 624 mmHg 87%
    09:00 -3°C° 0 mm 0 mps 624 mmHg 83%
    10:00 -1°C° 0 mm 0 mps 625 mmHg 80%
    11:00 -1°C° 0 mm 0 mps 624 mmHg 78%
    12:00 +1°C° 0 mm 1 mps 624 mmHg 77%
    13:00 +2°C° 0 mm 1 mps 624 mmHg 76%
    14:00 +1°C° 0 mm 1 mps 623 mmHg 78%
    15:00 +1°C° 0 mm 1 mps 623 mmHg 80%
    16:00 0°C° 0 mm 1 mps 623 mmHg 83%
    17:00 -1°C° 0 mm 1 mps 622 mmHg 85%
    18:00 -4°C° 0 mm 2 mps 622 mmHg 88%
    19:00 -5°C° 0 mm 2 mps 621 mmHg 91%
    20:00 -5°C° 0 mm 2 mps 621 mmHg 92%
    21:00 -5°C° 0 mm 2 mps 621 mmHg 93%
    22:00 -5°C° 0 mm 2 mps 620 mmHg 94%
    23:00 -4°C° 0 mm 2 mps 620 mmHg 94%

    Day after tomorrow, 28 January, Tuesday

    Time Temperature Precipitation Wind Pressure Humidity
    00:00 -4°C° 0 mm 2 mps 619 mmHg 94%
    01:00 -4°C° 0 mm 2 mps 619 mmHg 95%
    02:00 -4°C° 0.1 mm 2 mps 618 mmHg 95%
    03:00 -4°C° 0.1 mm 2 mps 617 mmHg 94%
    04:00 -4°C° 0.1 mm 2 mps 617 mmHg 94%
    05:00 -4°C° 0 mm 2 mps 616 mmHg 95%
    06:00 -4°C° 0 mm 2 mps 616 mmHg 95%
    07:00 -4°C° 0 mm 2 mps 615 mmHg 95%
    08:00 -4°C° 0 mm 2 mps 615 mmHg 94%
    09:00 -4°C° 0 mm 2 mps 615 mmHg 93%
    10:00 -3°C° 0 mm 2 mps 615 mmHg 93%
    11:00 -3°C° 0.1 mm 2 mps 614 mmHg 92%
    12:00 0°C° 0.1 mm 1 mps 614 mmHg 92%
    13:00 0°C° 0.1 mm 1 mps 613 mmHg 91%
    14:00 -2°C° 1.6 mm 2 mps 613 mmHg 93%
    15:00 -4°C° 1.6 mm 3 mps 613 mmHg 94%
    16:00 -5°C° 1.6 mm 4 mps 613 mmHg 95%
    17:00 -7°C° 1.4 mm 4 mps 613 mmHg 93%
    18:00 -8°C° 1.4 mm 4 mps 613 mmHg 90%
    19:00 -8°C° 1.4 mm 3 mps 614 mmHg 88%
    20:00 -9°C° 0.1 mm 3 mps 614 mmHg 88%
    21:00 -8°C° 0.1 mm 2 mps 614 mmHg 88%
    22:00 -9°C° 0.1 mm 2 mps 615 mmHg 88%
    23:00 -10°C° 0 mm 2 mps 614 mmHg 84%

    29 January, Wednesday

    Time Temperature Precipitation Wind Pressure Humidity
    00:00 -10°C° 0 mm 2 mps 614 mmHg 81%
    01:00 -10°C° 0 mm 1 mps 614 mmHg 77%
    02:00 -12°C° 0 mm 2 mps 614 mmHg 75%
    03:00 -12°C° 0 mm 2 mps 613 mmHg 73%
    04:00 -12°C° 0 mm 2 mps 613 mmHg 70%
    05:00 -10°C° 0.2 mm 2 mps 613 mmHg 74%
    06:00 -10°C° 0.2 mm 2 mps 614 mmHg 77%
    07:00 -9°C° 0.2 mm 2 mps 614 mmHg 81%
    08:00 -8°C° 0.2 mm 2 mps 615 mmHg 79%
    09:00 -8°C° 0.2 mm 2 mps 616 mmHg 78%
    10:00 -7°C° 0.2 mm 2 mps 616 mmHg 76%
    11:00 -7°C° 0.1 mm 3 mps 617 mmHg 72%
    12:00 -7°C° 0.1 mm 3 mps 617 mmHg 68%
    13:00 -7°C° 0.1 mm 3 mps 617 mmHg 65%
    14:00 -7°C° 0 mm 3 mps 617 mmHg 68%
    15:00 -7°C° 0 mm 3 mps 618 mmHg 71%
    16:00 -7°C° 0 mm 2 mps 618 mmHg 74%
    17:00 -8°C° 0 mm 2 mps 618 mmHg 77%
    18:00 -9°C° 0 mm 2 mps 618 mmHg 79%
    19:00 -13°C° 0 mm 3 mps 618 mmHg 82%
    20:00 -12°C° 0 mm 2 mps 618 mmHg 83%
    21:00 -12°C° 0 mm 2 mps 619 mmHg 84%
    22:00 -13°C° 0 mm 2 mps 619 mmHg 86%
    23:00 -13°C° 0.1 mm 2 mps 619 mmHg 87%

    30 January, Thursday

    Time Temperature Precipitation Wind Pressure Humidity
    00:00 -12°C° 0.1 mm 2 mps 620 mmHg 88%
    01:00 -10°C° 0.1 mm 1 mps 620 mmHg 89%
    02:00 -10°C° 0.3 mm 1 mps 620 mmHg 89%
    03:00 -9°C° 0.3 mm 1 mps 621 mmHg 90%
    04:00 -9°C° 0.3 mm 1 mps 621 mmHg 91%
    05:00 -9°C° 0.3 mm 1 mps 622 mmHg 91%
    06:00 -9°C° 0.3 mm 1 mps 622 mmHg 91%
    07:00 -10°C° 0.3 mm 1 mps 622 mmHg 92%
    08:00 -8°C° 0.1 mm 1 mps 623 mmHg 88%
    09:00 -7°C° 0.1 mm 1 mps 623 mmHg 85%
    10:00 -7°C° 0.1 mm 2 mps 624 mmHg 82%
    11:00 -4°C° 0 mm 1 mps 624 mmHg 76%
    12:00 -3°C° 0 mm 1 mps 624 mmHg 70%
    13:00 -2°C° 0 mm 1 mps 624 mmHg 65%
    14:00 -2°C° 0 mm 1 mps 624 mmHg 68%
    15:00 -2°C° 0 mm 1 mps 623 mmHg 71%
    16:00 -3°C° 0 mm 1 mps 623 mmHg 75%
    17:00 -4°C° 0 mm 1 mps 623 mmHg 76%
    18:00 -6°C° 0 mm 1 mps 622 mmHg 77%
    19:00 -8°C° 0 mm 1 mps 622 mmHg 78%
    20:00 -8°C° 0 mm 1 mps 622 mmHg 75%
    21:00 -8°C° 0 mm 1 mps 622 mmHg 72%
    22:00 -8°C° 0 mm 1 mps 622 mmHg 69%
    23:00 -8°C° 0 mm 1 mps 622 mmHg 66%

    31 January, Friday

    Time Temperature Precipitation Wind Pressure Humidity
    00:00 -7°C° 0 mm 1 mps 622 mmHg 64%
    01:00 -7°C° 0 mm 1 mps 622 mmHg 62%
    02:00 -7°C° 0 mm 1 mps 622 mmHg 59%
    03:00 -7°C° 0 mm 1 mps 622 mmHg 57%
    04:00 -7°C° 0 mm 1 mps 622 mmHg 55%
    05:00 -6°C° 0 mm 1 mps 622 mmHg 54%
    06:00 -6°C° 0 mm 1 mps 622 mmHg 52%
    07:00 -6°C° 0 mm 1 mps 622 mmHg 50%
    08:00 -3°C° 0 mm 1 mps 623 mmHg 53%
    09:00 -1°C° 0 mm 1 mps 624 mmHg 55%
    10:00 -1°C° 0 mm 0 mps 625 mmHg 58%
    11:00 0°C° 0 mm 0 mps 625 mmHg 63%
    12:00 +2°C° 0 mm 1 mps 625 mmHg 69%
    13:00 +3°C° 0 mm 1 mps 625 mmHg 74%
    14:00 +2°C° 0 mm 1 mps 625 mmHg 74%
    15:00 +2°C° 0 mm 1 mps 625 mmHg 74%
    16:00 +1°C° 0 mm 1 mps 625 mmHg 73%
    17:00 0°C° 0 mm 1 mps 625 mmHg 73%
    18:00 -1°C° 0 mm 1 mps 625 mmHg 72%
    19:00 -2°C° 0 mm 1 mps 625 mmHg 71%
    20:00 -2°C° 0 mm 1 mps 625 mmHg 75%
    21:00 -2°C° 0 mm 1 mps 625 mmHg 78%
    22:00 -2°C° 0 mm 1 mps 625 mmHg 82%
    23:00 -2°C° 0 mm 1 mps 625 mmHg 84%
    Show more